Retour au catalogue

COSMOS 1755

ActifMilitaireLEO
NORAD 16765·PAYLOAD·🇷🇺 Russia

Lancé Jun 6, 1986 depuis Plesetsk Cosmodrome

Loading…

Prochains Passages (prochaines 24 heures)

TLE

FraisSource: Space-Track

Époque: Sep 14, 2026, 08:46 UTC

1 16765U 86042H   26257.36590986 -.00000029  00000-0 -83400-4 0  9995
2 16765  74.0185  44.9533 0028948 159.5232 224.5950 12.54345638844158

Suivez COSMOS 1755 en temps réel avec AllMySat

Download on the App Store